Regional Weather Roundup
Issued by NWS

Home | Current Version | Previous Version | Text Only | Print | Product List | Glossary Off
Versions: 1 2 3 4 5 6 7 8 9 10 11 12 13 14 15 16 17 18 19 20 21 22 23 24 25 26 27 28 29 30 31 32 33 34 35 36 37 38 39 40 41 42 43 44 45 46 47 48 49 50

000
ASUS43 KOAX 302202
RWRNE

WEATHER ROUNDUP FOR NEBRASKA
NATIONAL WEATHER SERVICE OMAHA NE
500 PM CDT FRI SEP 30 2016

NOTES: SATELLITE DATA IS BEING USED TO AUGMENT CLOUD COVER ABOVE
       12000 FEET.
       "FAIR" INDICATES FEW OR NO CLOUDS BELOW 12,000 FEET WITH NO
       SIGNIFICANT WEATHER AND/OR OBSTRUCTIONS TO VISIBILITY.

  * THESE STATIONS DO NOT REPORT WEATHER SUCH AS RAIN...SNOW OR FOG.

NEZ001>004-019>022-054>056-302300-
NEBRASKA PANHANDLE

CITY           SKY/WX    TMP DP  RH WIND       PRES   REMARKS
SCOTTSBLUFF    PTSUNNY   69  49  48 SE12      30.12F
ALLIANCE       MOSUNNY   67  46  47 SE8       30.12F
CHADRON        CLOUDY    76  48  37 W9        30.05F
KIMBALL        CLOUDY    70  49  47 E5        30.17F
SIDNEY         CLOUDY    73  45  36 SE15      30.16S
$$

NEZ057>060-069>072-079>082-302300-
SOUTHWEST NEBRASKA

CITY           SKY/WX    TMP DP  RH WIND       PRES   REMARKS
NORTH PLATTE   CLOUDY    68  48  48 E9        30.14F
IMPERIAL       MOSUNNY   72  44  36 SE16      30.14F
LEXINGTON      MOSUNNY   68  46  45 E9        30.16F
MCCOOK         MOSUNNY   72  46  39 SE13      30.14F
OGALLALA       SUNNY     73  46  37 SE8       30.14S
$$

NEZ005>010-023>029-035>040-094-302300-
NORTH CENTRAL NEBRASKA

CITY           SKY/WX    TMP DP  RH WIND       PRES   REMARKS
VALENTINE      CLOUDY    70  44  39 S18       30.12F
AINSWORTH      PTSUNNY   67  46  47 S12       30.16S
BROKEN BOW     PTSUNNY   68  44  42 S10       30.17S
O`NEILL        CLOUDY    70  39  32 S8        30.17F
ORD            MOSUNNY   68  42  38 SE9       30.16F
THEDFORD       MOSUNNY   70  48  44 SE12      30.15F
$$

NEZ041-046>049-061>064-073>077-083>087-302300-
SOUTH CENTRAL NEBRASKA

CITY           SKY/WX    TMP DP  RH WIND       PRES   REMARKS
GRAND ISLAND   MOSUNNY  N/A N/A N/A SE7       30.17
AURORA         PTSUNNY   71  43  37 SE8       30.18S
HASTINGS       PTSUNNY   70  40  33 S3        30.18F
HEBRON         MOSUNNY   72  44  36 SE5       30.16F
HOLDREGE       MOSUNNY   70  42  36 SE10      30.16F
KEARNEY *      MOSUNNY   70  43  37 S10G16    30.17S
YORK           CLOUDY    72  45  37 SE5       30.18S
$$

NEZ011>018-030>034-042>045-302300-
NORTHEAST NEBRASKA

CITY           SKY/WX    TMP DP  RH WIND       PRES   REMARKS
NORFOLK        CLOUDY    72  44  36 SE7       30.17F
ALBION         CLOUDY    69  45  41 S6        30.18S
BLAIR          SUNNY     74  45  36 NE6       30.17S HAZE
FREMONT        SUNNY     72  42  34 NE6       30.17F
TEKAMAH        SUNNY     75  45  34 E7        30.16F
WAYNE          CLOUDY    71  47  43 SE5       30.19F
$$

NEZ050>053-065>068-078-088>093-302300-
SOUTHEAST NEBRASKA

CITY           SKY/WX    TMP DP  RH WIND       PRES   REMARKS
LINCOLN        SUNNY     73  43  33 NE3       30.17F
OMAHA EPPLEY   MOSUNNY   76  46  34 NE6       30.15F
BEATRICE       CLOUDY    73  44  34 E3        30.16F
FALLS CITY     SUNNY     75  45  34 N9        30.13F
NEBRASKA CITY  SUNNY     73  34  23 E6        30.16S
PLATTSMOUTH    SUNNY     74  38  27 N5        30.16S
$$

NEZ044-045-051>053-067-302300-
OMAHA AREA

CITY           SKY/WX    TMP DP  RH WIND       PRES   REMARKS
OMAHA EPPLEY   MOSUNNY   76  46  34 NE6       30.15F
BLAIR          SUNNY     74  45  36 NE6       30.17S HAZE
FREMONT        SUNNY     72  42  34 NE6       30.17F
MILLARD        SUNNY     74  45  35 E6        30.16S
OFFUTT AFB     SUNNY     75  46  35 N6        30.15F
PLATTSMOUTH    SUNNY     74  38  27 N5        30.16S
WAHOO          FAIR      73  43  34 NE7       30.17S
$$



USA.gov is the U.S. government's official web portal to all federal, state and local government web resources and services.